Find Local Weather

World > North America > United States > Wisconsin

Sheboygan, Wisconsin Regional Weather

Lat: 43.75N, Lon: 87.72W
Wx Zone: WIZ052
Feedback
Expires:201804270100;;082845
ASUS43 KGRB 270011
RWRGRB

NORTH-CENTRAL AND NORTHEAST WISCONSIN REGIONAL WEATHER ROUNDUP
NATIONAL WEATHER SERVICE GREEN BAY WI
700 PM CDT THU APR 26 2018


WIZ022-050-052-270100-
EAST CENTRAL WISCONSIN
  
CITY           SKY/WX    TMP DP  RH WIND       PRES   REMARKS
EPHRAIM        MOCLDY    48  34  56 S9        29.75F                  
WASHINGTON ISL MOCLDY    41  34  75 S9        29.76S                  
STURGEON BAY   FAIR      51  37  58 S10       29.77F                  
MANITOWOC      FAIR      49  34  56 S10       29.79F                  
SHEBOYGAN      FAIR      54  35  48 S10       29.79F                  
$$


SKY/WX - Weather  TMP - Temperature  DP - Dewpoint  RH - Relative Humidity
WIND - Wind Direction/Speed PRES - Barometric Pressure